Location: Malvern Link
(52.1333°N, 2.3000°W)
Time: 16:07:09
(UTC+00:00)

SO-50 - Pass Details

Date: 06 July 2022
Orbit: 585 x 698 km, 64.6° (Epoch: 11 August)

Event Time Altitude Azimuth Distance (km) Brightness Sun altitude
Exits shadow 23:26:13 15° 210° (SSW) 1,768 ? -14.5°
Maximum altitude 23:30:07 70° 129° (SE) 721 ? -14.6°
Drops below altitude 10° 23:34:58 10° 46° (NE) 2,144 ? -14.8°
Sets 23:37:21 0° 45° (NE) 3,075 ? -14.8°
